Theta_e
323 323 322 321 322 323 322 322 321 322 323 322 322 321 324 325 327 326 317 323 327 330 330 330 329 327 327 323 324 320 310 307 309 309 311 312 309 313 314 313 316 321 320 325 330
323 323 323 322 322 323 324 323 322 322 322 322 322 322 323 325 321 317 327 330 332 331 325 324 319 322 318 319 320 316 310 309 315 316 312 313 313 313 312 311 313 316 323 327 329
323 322 323 323 322 322 323 323 322 321 322 322 322 323 323 325 313 312 329 331 332 330 326 327 325 321 313 316 316 314 308 314 315 316 316 314 314 317 313 312 315 315 317 324 327
321 322 322 322 322 322 323 322 323 322 322 322 322 323 322 322 294 316 323 324 332 328 324 322 321 315 311 309 313 308 312 312 315 316 313 313 316 314 315 316 321 322 321 320 323
320 321 321 321 321 322 322 322 323 322 322 322 322 322 319 309 306 322 326 325 326 323 320 318 314 313 307 309 311 309 308 311 314 314 314 315 313 313 314 318 320 320 320 318 317
319 319 320 320 321 321 321 323 322 321 321 321 322 322 314 301 317 322 323 324 322 321 318 319 314 315 310 309 309 310 310 309 311 311 312 309 310 312 313 317 316 318 318 317 319
318 318 319 320 320 320 321 322 322 320 321 320 322 317 309 305 319 322 323 322 323 321 316 320 319 315 312 308 313 311 306 308 310 310 309 311 306 306 312 315 313 315 316 317 317
316 317 317 319 320 320 320 321 321 321 320 321 320 315 302 315 322 320 322 319 323 323 320 321 323 317 314 314 311 306 305 299 304 308 311 310 298 307 312 312 312 314 316 317 318
316 316 317 318 319 319 319 320 320 320 320 318 314 310 299 315 312 318 320 315 319 320 321 321 319 312 312 305 301 303 296 299 301 308 307 308 301 307 312 312 311 313 314 315 317
315 315 317 317 318 319 318 319 319 317 315 314 312 303 305 303 309 314 318 319 314 314 312 312 310 305 305 301 291 295 296 298 298 304 305 304 303 308 311 312 312 313 314 315 315
314 315 316 317 318 319 317 311 302 301 305 299 300 300 304 309 312 310 315 314 313 308 301 306 299 296 300 303 302 300 298 297 301 304 302 301 302 304 308 309 309 311 313 314 315
313 314 314 316 318 318 314 300 302 303 295 302 302 303 307 310 302 305 314 306 304 297 302 300 295 301 303 302 300 300 298 297 300 302 301 299 299 303 306 307 309 310 311 312 314
312 313 314 314 316 314 307 303 309 307 293 296 301 302 305 308 301 301 309 306 302 298 299 296 298 302 300 298 296 296 295 295 296 299 301 299 296 299 304 306 308 309 311 312 312
311 312 313 314 308 311 305 307 307 306 286 289 294 300 304 306 298 307 308 305 300 296 299 298 302 300 298 296 298 292 299 298 295 293 289 298 287 296 300 301 303 306 308 310 312
311 311 312 313 307 304 307 307 305 300 275 291 293 306 304 300 301 302 309 305 296 297 298 295 297 297 296 297 300 296 300 297 296 294 293 293 289 294 300 298 301 305 307 309 311
309 310 310 309 310 311 308 305 298 281 274 286 294 295 296 298 299 302 302 305 303 297 298 297 302 301 299 300 300 301 298 297 296 293 285 291 289 291 295 299 303 306 308 310 310
309 307 304 308 300 311 306 297 281 276 287 285 288 293 294 292 294 296 294 293 291 286 288 294 295 299 302 296 300 298 294 284 283 282 284 293 290 293 300 303 304 305 307 310 312
308 306 303 306 309 307 301 286 277 284 283 291 291 291 288 292 292 293 292 289 296 293 289 286 284 294 299 296 293 294 293 286 279 282 285 293 288 294 303 306 307 308 308 309 310
308 302 300 304 308 305 293 280 281 286 288 288 289 285 287 290 290 291 291 290 294 296 288 286 286 297 297 299 298 293 289 296 288 288 284 290 294 300 303 303 305 305 307 305 306
302 298 296 302 305 301 287 284 286 290 289 291 284 287 284 288 288 289 290 294 293 297 298 293 285 294 295 298 299 296 298 287 287 280 279 285 288 291 297 299 302 303 304 303 304
300 289 299 304 301 290 283 285 288 292 292 290 288 286 287 287 289 288 289 292 296 295 298 295 292 290 294 291 291 292 291 292 292 289 282 281 287 298 297 300 301 303 302 303 303
292 283 301 303 285 285 284 289 290 288 292 292 291 291 289 290 288 289 288 292 297 297 292 296 291 286 288 296 298 296 292 293 286 284 287 286 286 299 300 302 302 302 302 304 306
287 290 300 298 280 283 285 287 291 287 287 290 289 291 293 290 286 290 291 296 297 295 293 295 288 283 284 290 293 292 294 294 293 292 286 282 286 300 300 301 303 303 304 306 307
290 283 287 290 288 285 285 284 285 292 290 291 290 291 290 289 291 288 290 294 296 296 298 298 290 286 282 286 290 287 290 294 292 285 286 288 290 295 299 300 302 304 305 306 306
286 285 287 282 283 285 286 286 285 284 291 292 289 289 289 286 287 286 291 292 294 296 297 295 285 289 289 290 291 290 289 291 290 291 287 290 291 295 298 300 302 304 304 304 304
285 285 288 287 287 285 287 285 286 287 287 286 287 290 290 287 288 286 290 290 290 295 294 295 285 288 285 289 289 287 291 292 291 291 291 292 292 300 302 303 302 302 302 302 303
291 293 292 287 286 283 284 285 288 290 289 292 292 291 289 291 294 295 296 295 294 293 292 290 286 285 282 288 287 281 287 289 291 294 293 289 295 301 299 300 301 301 302 300 298
Wind_Speed
19 18 17 16 14 15 14 13 11 10 8 5 4 3 4 5 3 9 12 2 2 2 8 3 6 4 5 3 3 2 8 12 13 9 9 6 8 3 0 5 3 3 2 5 11
20 19 18 18 16 14 15 13 11 10 9 8 7 5 3 4 9 11 5 5 4 3 6 6 8 6 7 5 5 8 10 18 13 5 6 8 8 6 6 9 6 7 6 6 11
21 21 20 19 17 15 15 15 12 11 9 8 7 6 4 6 10 14 12 9 6 6 5 6 6 9 11 7 8 7 15 14 15 6 8 10 7 10 9 14 9 8 9 10 12
17 20 21 20 18 17 14 16 13 11 10 7 7 6 5 10 8 4 4 3 10 9 8 7 10 10 9 12 11 10 13 14 10 6 5 10 10 9 12 14 16 8 11 10 13
13 19 22 20 19 18 16 15 14 12 10 9 8 7 6 11 12 7 4 5 14 12 13 12 13 13 12 10 9 12 14 8 12 5 9 11 13 14 20 15 14 15 15 12 13
14 14 21 21 20 19 17 16 16 13 11 10 9 6 9 16 4 1 3 6 13 15 14 13 9 13 8 10 11 1 12 13 11 8 12 11 17 13 16 14 16 14 16 16 17
15 14 15 21 22 21 19 17 16 15 13 12 11 9 12 13 1 4 3 1 7 14 12 14 10 9 9 9 11 8 11 12 12 12 11 6 18 21 25 19 20 19 18 16 18
18 17 15 19 21 22 20 18 15 14 13 11 10 10 13 12 4 4 6 5 5 11 12 11 6 10 8 3 4 9 11 12 8 15 10 8 18 15 16 14 17 15 14 16 19
18 17 17 17 20 21 20 18 16 13 12 9 8 11 11 7 12 8 5 8 7 5 7 4 7 10 7 11 10 10 11 17 14 14 9 13 12 11 11 14 18 16 15 14 15
21 19 18 17 19 20 19 18 16 11 11 7 6 9 6 9 12 16 8 7 6 7 7 9 7 11 11 12 14 12 16 16 15 9 13 17 20 18 18 21 19 20 18 18 18
22 21 19 19 20 23 20 11 9 7 21 15 9 10 1 9 12 16 12 11 9 10 11 13 11 16 17 19 18 16 17 16 13 6 11 17 21 20 21 23 22 21 20 21 21
24 22 21 21 20 23 15 13 22 3 15 23 9 22 3 10 10 15 17 12 11 14 16 9 21 17 16 17 21 20 19 19 14 7 10 19 25 23 23 26 24 23 23 22 22
25 22 21 21 20 18 15 29 18 16 7 24 15 18 10 12 13 19 20 18 14 17 21 17 4 21 16 18 19 18 19 15 15 12 15 17 28 26 26 29 26 25 26 26 25
25 23 23 22 15 17 18 20 7 11 5 13 20 9 15 11 10 15 19 18 8 19 18 16 19 15 18 21 18 19 16 15 13 9 10 4 14 20 20 23 23 19 19 20 20
21 21 22 25 9 18 12 14 13 6 8 16 25 8 15 17 13 13 19 23 17 13 10 12 16 16 19 17 16 12 10 10 12 14 15 18 12 5 8 14 14 13 15 17 17
20 17 19 15 12 19 17 20 9 5 8 9 18 20 24 21 13 12 14 17 13 15 20 22 4 14 21 13 13 5 10 10 9 3 8 15 13 10 11 7 6 7 14 13 14
25 23 8 11 18 15 19 14 11 9 11 10 16 26 30 21 18 13 18 17 15 12 20 18 17 8 7 18 18 15 10 3 5 5 8 10 14 19 7 10 17 18 13 13 11
25 22 10 8 12 20 15 9 15 18 11 11 16 23 27 21 17 17 17 18 23 20 13 17 13 26 14 19 9 20 14 6 9 6 6 11 14 13 5 8 11 11 9 10 9
22 10 10 6 8 14 13 17 9 14 17 16 17 20 15 18 14 19 23 23 21 24 14 18 18 3 18 15 19 14 19 17 13 1 4 8 18 18 15 17 19 14 9 1 4
11 11 11 15 10 13 12 26 11 10 10 20 11 11 18 24 18 22 22 22 27 28 21 9 12 11 20 15 21 17 11 4 5 7 10 15 19 15 6 10 12 7 11 2 5
10 8 10 17 12 6 18 9 10 16 14 16 10 14 22 24 26 26 22 8 30 27 21 7 9 7 14 16 18 15 18 8 6 7 5 6 10 6 9 7 1 6 2 6 7
4 6 12 15 11 1 4 15 10 14 17 9 8 5 18 26 25 25 25 23 19 22 30 22 1 7 13 2 16 20 26 23 10 9 5 10 19 4 4 1 5 5 5 6 9
6 4 7 14 11 9 4 8 16 17 14 20 15 15 17 23 15 20 20 16 10 22 22 18 7 5 4 8 7 13 21 21 23 14 14 9 15 3 14 12 5 8 12 13 14
5 6 3 6 8 13 5 3 14 25 25 17 14 12 17 18 13 19 17 13 11 18 13 17 10 15 13 3 5 9 24 24 21 13 23 16 27 20 10 11 16 17 14 17 17
2 5 4 10 10 10 14 15 20 14 18 16 10 14 17 12 17 8 19 16 10 11 20 12 9 15 19 18 7 11 8 18 25 26 16 25 26 23 21 19 16 17 16 16 16
3 4 2 3 15 17 15 13 19 16 16 15 15 21 19 13 18 17 22 17 13 19 21 15 4 7 10 18 19 11 12 17 20 20 19 26 24 26 19 21 17 13 17 15 17
2 1 3 8 11 15 9 16 21 22 11 21 24 19 18 13 19 9 14 16 8 19 21 15 7 5 7 8 7 5 24 21 21 23 23 22 31 18 17 13 16 15 15 14 14
Wind_Direction
213 208 210 219 219 218 218 219 223 224 226 245 256 288 324 313 263 234 251 73 115 68 302 286 240 230 237 198 229 275 247 250 245 241 267 146 196 192 303 232 199 183 299 100 135
216 212 206 211 216 217 217 213 217 218 223 233 245 256 295 294 247 243 100 104 130 192 251 249 224 209 211 221 199 223 232 245 261 277 258 186 242 200 226 205 202 197 142 157 157
224 214 209 205 210 213 213 210 207 211 209 211 227 239 260 235 262 253 209 187 213 221 257 271 288 230 231 228 205 208 242 250 260 261 271 269 232 243 258 254 247 238 178 179 186
225 219 212 206 205 210 208 211 205 202 205 207 208 223 252 223 228 63 5 291 188 233 219 214 222 218 229 217 216 248 242 267 282 284 240 245 254 253 251 266 300 281 255 195 202
223 222 215 205 202 204 206 206 205 201 194 199 200 205 213 220 243 117 304 212 188 208 213 204 213 221 221 232 215 243 249 242 251 256 254 275 250 259 265 274 271 278 279 257 240
212 216 218 207 199 199 202 198 204 202 188 197 192 206 233 232 248 170 318 179 192 200 209 213 216 225 271 237 226 334 243 250 250 258 258 258 261 255 258 258 253 261 258 257 255
212 212 216 214 200 195 196 196 194 199 185 193 188 206 230 226 318 197 206 169 213 203 205 217 228 216 225 239 231 258 255 250 234 236 253 266 259 247 259 257 261 260 254 259 261
209 207 211 206 214 198 190 187 183 185 182 193 187 208 236 231 176 187 204 203 206 217 208 232 243 241 237 108 175 222 241 251 232 226 210 227 261 266 256 258 250 256 263 256 259
207 201 204 206 204 202 192 180 173 169 172 160 179 216 224 109 202 196 195 204 173 199 216 228 211 225 177 221 226 220 243 218 240 207 235 211 272 265 271 276 260 271 266 266 270
206 203 202 206 199 197 189 180 154 159 173 173 248 200 206 211 189 207 199 194 162 165 196 215 205 211 212 210 220 224 225 243 248 199 213 251 263 265 266 275 271 267 272 268 263
205 201 202 202 197 192 188 147 137 195 192 191 189 217 59 167 171 200 186 186 177 188 195 200 210 213 206 221 234 255 245 254 252 243 296 271 273 275 273 266 265 262 261 263 266
210 201 201 203 200 186 188 161 186 216 190 220 219 210 189 185 174 198 182 194 192 198 195 192 231 218 221 226 235 242 253 251 256 277 276 277 273 270 268 269 265 266 268 269 269
208 204 199 203 200 181 190 179 197 179 162 203 214 216 173 201 204 191 192 197 197 199 201 207 234 216 226 227 225 234 239 245 263 291 275 287 283 261 252 255 258 256 262 262 264
203 199 202 201 191 194 210 196 113 68 185 182 202 227 197 201 228 178 202 187 208 214 206 226 224 186 215 225 221 241 240 256 262 273 258 259 288 289 290 275 272 273 262 258 254
188 196 202 196 191 199 181 137 88 50 214 167 182 177 177 191 128 188 190 202 210 192 190 209 206 207 211 206 209 233 250 242 246 253 267 257 271 279 269 280 272 260 265 260 263
175 176 209 205 211 198 139 130 86 178 215 159 158 185 174 200 193 137 175 213 223 221 216 231 181 226 227 221 224 207 241 258 259 320 240 233 228 281 256 272 313 277 267 273 267
186 174 196 206 206 152 139 145 162 219 133 167 176 176 188 180 178 176 175 187 187 192 217 222 219 221 233 223 218 219 210 205 220 211 244 209 207 245 292 269 290 271 292 307 297
181 174 180 219 201 157 155 182 232 154 162 197 175 170 190 173 201 191 183 192 212 202 181 207 211 220 196 223 188 207 188 211 215 207 246 190 232 243 238 256 273 276 299 308 290
177 183 194 188 188 172 163 198 211 171 160 167 162 162 182 178 177 184 198 205 203 201 209 200 221 219 201 205 202 192 219 236 276 309 275 225 249 261 253 245 267 259 265 233 24
175 181 195 198 241 183 192 214 180 174 142 163 162 172 173 180 180 193 196 208 208 211 219 200 226 181 192 210 226 233 154 148 204 223 230 240 246 247 188 224 265 244 194 284 323
163 188 182 178 206 246 197 178 192 175 162 164 162 181 191 180 192 195 196 199 200 202 200 213 237 164 162 207 204 208 224 230 210 222 229 251 240 260 284 272 239 348 122 335 354
132 208 159 158 206 226 226 176 136 170 197 175 156 195 184 186 198 189 212 209 204 192 198 203 298 213 205 110 218 219 221 215 216 213 269 281 268 294 286 222 343 320 8 331 309
180 153 170 172 204 214 100 205 174 152 181 189 168 184 194 187 195 209 215 204 191 192 195 189 209 187 248 280 230 237 228 229 233 252 235 215 261 263 232 259 276 310 326 327 326
153 172 170 206 206 206 188 196 159 180 178 194 160 152 165 180 199 202 211 185 171 216 199 176 195 212 223 118 127 214 232 227 228 224 235 226 259 251 245 290 311 315 328 319 319
161 199 175 191 171 199 211 168 185 163 191 200 188 174 163 167 189 199 194 187 199 216 192 191 220 220 236 256 264 246 229 240 220 227 226 238 244 260 266 279 293 323 310 312 322
192 158 135 140 156 192 191 207 186 157 158 184 192 189 188 177 191 188 179 190 182 198 194 202 226 213 244 245 248 241 251 230 225 237 247 263 267 263 281 293 297 299 310 323 321
198 276 201 149 163 191 221 202 198 166 197 183 188 183 195 192 191 198 166 181 183 180 188 187 160 157 227 198 241 272 239 242 241 224 225 232 244 273 273 294 295 319 325 335 338